TimeCAT,TemperatureF,Dew PointF,Humidity,Sea Level PressureIn,VisibilityMPH,Wind Direction,Wind SpeedMPH,Gust SpeedMPH,PrecipitationIn,Events,Conditions,WindDirDegrees,DateUTC
12:00 AM,57.2,53.6,88,30.27,6.2,SE,9.2,-,N/A,,Scattered Clouds,130,2013-04-05 22:00:00
2:00 AM,56,52,83,,19,SE,5.8,,,,Mostly Cloudy,130,2013-04-06 00:00:00
2:00 AM,55.4,51.8,88,30.24,6.2,SE,5.8,-,N/A,,Mostly Cloudy,130,2013-04-06 00:00:00
5:00 AM,53.6,50.0,88,30.24,6.2,SE,8.1,-,N/A,,Mostly Cloudy,140,2013-04-06 03:00:00
6:00 AM,51.8,50.0,94,30.24,6.2,SE,5.8,-,N/A,,Partly Cloudy,140,2013-04-06 04:00:00
7:00 AM,53.6,50.0,88,30.24,6.2,SSE,4.6,-,N/A,,Partly Cloudy,150,2013-04-06 05:00:00
8:00 AM,59.0,51.8,77,30.27,6.2,SSE,8.1,-,N/A,,Scattered Clouds,150,2013-04-06 06:00:00
9:00 AM,62.6,51.8,68,30.30,6.2,SE,8.1,-,N/A,,Partly Cloudy,140,2013-04-06 07:00:00
10:00 AM,66.2,51.8,60,30.27,6.2,SSE,8.1,-,N/A,,Partly Cloudy,160,2013-04-06 08:00:00
11:00 AM,68.0,50.0,52,30.27,6.2,SSE,8.1,-,N/A,,Partly Cloudy,160,2013-04-06 09:00:00
12:00 PM,69.8,50.0,49,30.24,6.2,SW,6.9,-,N/A,,Partly Cloudy,220,2013-04-06 10:00:00
1:00 PM,71.6,50.0,46,30.18,6.2,WSW,10.4,-,N/A,,Partly Cloudy,240,2013-04-06 11:00:00
2:00 PM,74,51,33,,19,West,17.9,,,,Partly Cloudy,260,2013-04-06 12:00:00
2:00 PM,73.4,51.8,47,30.15,-9999.0,West,9.2,-,N/A,,Clear,260,2013-04-06 12:00:00
3:00 PM,73.4,50.0,44,30.15,-9999.0,WSW,8.1,-,N/A,,Clear,240,2013-04-06 13:00:00
4:00 PM,73.4,50.0,44,30.15,-9999.0,West,10.4,-,N/A,,Clear,270,2013-04-06 14:00:00
5:00 PM,71.6,48.2,43,30.15,-9999.0,WSW,9.2,-,N/A,,Clear,240,2013-04-06 15:00:00
6:00 PM,66.2,48.2,52,30.15,-9999.0,SSW,4.6,-,N/A,,Clear,210,2013-04-06 16:00:00
7:00 PM,60.8,48.2,63,30.15,-9999.0,Calm,Calm,-,N/A,,Clear,0,2013-04-06 17:00:00
8:00 PM,60.8,50.0,68,30.18,-9999.0,SE,9.2,-,N/A,,Clear,140,2013-04-06 18:00:00
9:00 PM,59.0,50.0,72,30.21,-9999.0,ESE,8.1,-,N/A,,Clear,120,2013-04-06 19:00:00
10:00 PM,57.2,50.0,77,30.21,-9999.0,Variable,2.3,-,N/A,,Clear,0,2013-04-06 20:00:00
11:00 PM,53.6,48.2,82,30.21,-9999.0,East,5.8,-,N/A,,Clear,80,2013-04-06 21:00:00